Weather reports worldwide

Advertisment
Brive, France (7438): temperature & dewpoint: 06.12.2018 00:00:00 - 12.12.2018 00:00:00 (CET)Brive, France (7438): temperature 5cm: 06.12.2018 00:00:00 - 12.12.2018 00:00:00 (CET)Brive, France (7438): temperature -20cm & temperature -100cm: 06.12.2018 00:00:00 - 12.12.2018 00:00:00 (CET)Brive, France (7438): wind speed & gusts: 06.12.2018 00:00:00 - 12.12.2018 00:00:00 (CET)Brive, France (7438): wind direction: 06.12.2018 00:00:00 - 12.12.2018 00:00:00 (CET)Brive, France (7438): reduced air pressure: 06.12.2018 00:00:00 - 12.12.2018 00:00:00 (CET)Brive, France (7438): visibility: 06.12.2018 00:00:00 - 12.12.2018 00:00:00 (CET)Brive, France (7438): sunshine duration: 06.12.2018 00:00:00 - 12.12.2018 00:00:00 (CET)Brive, France (7438): precipitation: 06.12.2018 00:00:00 - 12.12.2018 00:00:00 (CET)
Date & Time tt [°C] td [°C] tt 5cm [°C] tt -20cm [°C] tt -100cm [°C] ff [km/h] ff [kn] fx [km/h] fx [kn] dd ppp [hPa] vv [km] sd [min] rr [mm]
12.12.2018 00:00:00 -0,1 -0,7 -1,6 9,3 13,1 0 0 4 2 N 1022,6 18 0 0,0
11.12.2018 23:00:00 0,3 -0,4 -1,5 9,4 13,1 0 0 2 1 N 1022,4 14 0 0,0
11.12.2018 22:00:00 0,9 0,0 -0,4 9,6 13,1 0 0 4 2 N 1022,3 9 0 0,0
11.12.2018 21:00:00 1,6 0,4 -0,1 9,7 13,1 0 0 8 4 N 1022,1 20 0 0,0
11.12.2018 20:00:00 2,3 1,0 1,3 9,8 13,1 7 4 9 5 SE 1022,2 20 0 0,0
11.12.2018 19:00:00 3,6 1,6 1,7 9,8 13,1 0 0 9 5 N 1022,5 20 0 0,0
11.12.2018 18:00:00 5,1 2,4 2,6 9,8 13,1 0 0 6 3 N 1022,4 20 0 0,0
11.12.2018 17:00:00 8,3 3,9 7,4 9,8 13,2 4 2 6 3 SSW 1022,0 20 45 0,0
11.12.2018 16:00:00 9,5 3,5 12,2 9,6 13,1 2 1 5 3 NNW 1022,2 20 60 0,0
11.12.2018 15:00:00 9,3 3,3 13,6 9,5 13,1 3 2 8 4 W 1022,5 20 60 0,0
11.12.2018 14:00:00 7,2 4,7 12,4 9,4 13,1 2 1 6 3 WNW 1023,4 20 60 0,0
11.12.2018 13:00:00 4,6 4,3 5,0 9,3 13,1 3 2 6 4 WSW 1024,6 14 57 0,0
11.12.2018 12:00:00 2,1 2,0 3,0 9,3 13,1 4 2 6 3 WNW 1025,7 1,2 1 0,0
11.12.2018 11:00:00 1,3 1,2 2,0 9,3 13,1 4 2 5 3 NNE 1026,6 0,2 0 0,0
11.12.2018 10:00:00 1,1 1,0 1,4 9,4 13,2 0 0 6 3 N 1026,6 0,2 0 0,0
11.12.2018 09:00:00 0,8 0,7 1,0 9,5 13,2 0 0 4 2 N 1026,5 0,2 0 0,0
11.12.2018 08:00:00 0,6 0,5 0,6 9,6 13,2 3 2 8 4 SSW 1026,7 0,3 0 0,0
11.12.2018 07:00:00 0,5 0,2 0,8 9,7 13,2 4 2 9 5 SSE 1027,1 0,3 0 0,0
11.12.2018 06:00:00 1,2 0,9 1,3 9,8 13,2 3 2 8 4 ESE 1027,7 0,1 0 0,0
11.12.2018 05:00:00 1,6 1,3 1,9 9,8 13,2 4 2 7 4 SE 1028,2 0,3 0 0,0
11.12.2018 04:00:00 1,9 1,6 2,0 9,9 13,2 0 0 4 2 N 1029,0 0,2 0 0,0
11.12.2018 03:00:00 2,0 1,6 2,2 10,0 13,2 0 0 4 2 N 1029,4 0,2 0 0,0
11.12.2018 02:00:00 2,0 1,6 1,6 10,1 13,2 2 1 5 3 E 1029,8 0,2 0 0,0
11.12.2018 01:00:00 1,6 1,2 -0,5 10,3 13,2 2 1 5 3 SE 1029,9 0,9 0 0,0
11.12.2018 00:00:00 1,7 1,1 -0,4 10,5 13,2 0 0 3 1 N 1030,4 11 0 0,0
10.12.2018 23:00:00 2,2 1,5 0,1 10,6 13,2 0 0 5 3 N 1030,5 8 0 0,0
10.12.2018 22:00:00 2,7 2,0 0,8 10,8 13,2 3 2 9 5 SE 1030,9 9 0 0,0
10.12.2018 21:00:00 3,6 2,6 1,5 10,9 13,2 3 1 5 3 SE 1031,0 14 0 0,0
10.12.2018 20:00:00 4,5 3,3 2,5 11,0 13,2 3 1 6 3 S 1031,3 15 0 0,0
10.12.2018 19:00:00 6,0 4,2 3,1 11,1 13,2 0 0 3 2 N 1031,3 16 0 0,0
10.12.2018 18:00:00 8,1 5,0 5,5 11,1 13,2 0 0 11 6 N 1031,0 16 0 0,0
10.12.2018 17:00:00 9,9 5,3 9,0 11,0 13,2 7 4 16 9 WNW 1030,8 20 45 0,0
10.12.2018 16:00:00 10,8 5,7 11,0 11,0 13,2 8 4 18 10 WNW 1030,9 20 44 0,0
10.12.2018 15:00:00 11,0 5,7 10,5 10,8 13,2 8 4 14 8 W 1031,2 20 16 0,0
10.12.2018 14:00:00 10,8 6,0 12,5 10,7 13,2 8 5 15 8 WNW 1031,8 20 51 0,0
10.12.2018 13:00:00 9,8 6,0 11,3 10,7 13,2 6 4 14 8 W 1032,5 18 24 0,0
10.12.2018 12:00:00 9,3 5,7 10,4 10,6 13,2 7 4 15 8 W 1033,0 17 7 0,0
10.12.2018 11:00:00 8,7 5,8 8,8 10,6 13,2 8 5 14 8 WNW 1033,4 15 34 0,0
10.12.2018 10:00:00 7,7 6,0 7,0 10,7 13,2 5 3 12 7 W 1033,3 11 4 0,0
10.12.2018 09:00:00 7,1 5,9 5,6 10,8 13,2 5 3 10 5 W 1032,9 11 0 0,0
10.12.2018 08:00:00 7,3 5,6 5,9 10,8 13,2 3 2 8 5 W 1032,5 11 0 0,0
10.12.2018 07:00:00 8,2 6,3 7,6 10,9 13,2 4 2 14 8 WNW 1032,0 13 0 0,0
10.12.2018 06:00:00 8,7 6,5 8,4 10,9 13,2 9 5 22 12 WNW 1031,7 13 0 0,0
10.12.2018 05:00:00 8,9 6,9 8,6 10,9 13,2 8 4 17 9 W 1031,5 13 0 0,0
10.12.2018 04:00:00 9,3 6,9 8,8 11,0 13,2 8 5 21 11 WNW 1031,8 13 0 0,0
10.12.2018 03:00:00 9,5 6,9 9,1 11,0 13,2 9 5 26 14 NW 1031,6 13 0 0,0
10.12.2018 02:00:00 9,7 7,1 9,2 11,0 13,2 10 6 22 12 WNW 1031,4 13 0 0,0
10.12.2018 01:00:00 9,7 7,3 9,2 11,1 13,2 10 6 19 11 WNW 1031,5 12 0 0,0
10.12.2018 00:00:00 10,0 7,2 9,5 11,1 13,2 10 5 23 12 WNW 1031,3 13 0 0,0
09.12.2018 23:00:00 10,0 7,2 9,7 11,2 13,2 11 6 26 14 WNW 1030,8 13 0 0,0
09.12.2018 22:00:00 10,2 7,3 9,5 11,2 13,2 13 7 26 14 WNW 1029,9 14 0 0,0
09.12.2018 21:00:00 10,3 7,2 9,3 11,2 13,2 12 6 32 18 WNW 1029,5 14 0 0,0
09.12.2018 20:00:00 10,5 7,2 8,7 11,3 13,2 17 9 32 17 WNW 1028,8 14 0 0,0
09.12.2018 19:00:00 9,9 8,0 8,8 11,3 13,2 10 5 21 11 WNW 1028,2 13 0 0,2
09.12.2018 18:00:00 10,5 7,6 9,3 11,3 13,3 16 9 32 17 WNW 1026,9 18 0 0,0
09.12.2018 17:00:00 11,4 6,9 10,7 11,3 13,3 14 8 32 17 W 1025,9 16 0 0,0
09.12.2018 16:00:00 11,6 7,9 9,9 11,2 13,3 12 6 23 12 W 1025,4 16 22 0,0
09.12.2018 15:00:00 10,7 7,9 9,5 11,2 13,3 10 6 48 26 WNW 1025,4 16 1 0,4
09.12.2018 14:00:00 12,0 6,7 11,8 11,1 13,3 9 5 23 13 NW 1024,5 14 2 0,0
09.12.2018 13:00:00 11,7 6,8 10,2 11,0 13,2 13 7 34 19 NW 1025,0 15 0 0,0
09.12.2018 12:00:00 10,8 8,4 9,6 11,0 13,3 9 5 26 14 W 1024,9 11 0 0,0
09.12.2018 11:00:00 10,4 7,8 9,2 11,0 13,2 15 8 44 24 WNW 1025,2 10 0 3,0
09.12.2018 10:00:00 11,8 9,0 10,4 11,0 13,3 14 8 32 18 WNW 1023,3 6 0 0,0
09.12.2018 09:00:00 11,5 8,9 10,1 11,0 13,3 14 8 29 16 W 1023,4 20 0 0,2
09.12.2018 08:00:00 11,5 8,7 10,4 11,0 13,3 9 5 29 16 W 1023,5 10 0 0,0
09.12.2018 07:00:00 12,0 8,8 10,7 11,0 13,3 13 7 34 18 W 1023,2 13 0 0,0
09.12.2018 06:00:00 12,0 9,2 10,7 11,0 13,3 12 6 34 19 W 1022,8 15 0 0,0
09.12.2018 05:00:00 12,2 9,6 10,8 11,0 13,3 9 5 26 14 W 1022,8 18 0 0,0
09.12.2018 04:00:00 11,9 10,0 10,9 10,9 13,3 12 7 25 13 WNW 1023,3 20 0 0,0
09.12.2018 03:00:00 12,1 9,8 10,9 10,9 13,3 9 5 31 17 W 1022,7 20 0 0,0
09.12.2018 02:00:00 12,0 9,9 10,7 10,9 13,3 14 7 32 17 W 1022,5 20 0 0,2
09.12.2018 01:00:00 11,5 9,9 10,2 10,9 13,3 11 6 31 17 W 1023,2 20 0 0,2
09.12.2018 00:00:00 10,8 9,6 10,0 10,8 13,3 11 6 29 16 W 1023,6 10 0 0,2
08.12.2018 23:00:00 10,7 9,1 10,0 10,8 13,3 16 9 32 17 WSW 1023,3 18 0 0,0
08.12.2018 22:00:00 10,7 9,1 9,9 10,8 13,3 13 7 26 14 W 1023,7 16 0 0,0
08.12.2018 21:00:00 10,6 9,2 9,9 10,8 13,3 11 6 26 14 WSW 1024,2 13 0 0,0
08.12.2018 20:00:00 10,9 9,2 9,9 10,8 13,3 11 6 22 12 WSW 1024,4 8 0 0,4
08.12.2018 19:00:00 11,0 8,9 9,8 10,7 13,3 6 4 18 10 WSW 1024,5 18 0 0,0
08.12.2018 18:00:00 10,6 9,2 9,8 10,7 13,3 9 5 24 13 W 1025,1 6 0 0,4
08.12.2018 17:00:00 10,8 8,7 9,8 10,6 13,3 11 6 23 12 WSW 1025,2 16 0 0,0
08.12.2018 16:00:00 11,3 8,7 10,2 10,5 13,3 10 6 23 13 WSW 1025,2 18 0 0,2
08.12.2018 15:00:00 11,7 8,5 10,6 10,4 13,3 9 5 24 13 W 1025,5 20 0 0,0
08.12.2018 14:00:00 10,9 9,2 9,8 10,3 13,3 5 3 10 5 W 1026,2 19 0 0,2
08.12.2018 13:00:00 9,9 8,5 9,4 10,2 13,3 0 0 21 11 N 1027,1 5 0 1,0
08.12.2018 12:00:00 9,6 7,7 9,8 10,1 13,3 6 3 14 8 W 1027,4 18 11 0,0
08.12.2018 11:00:00 8,0 7,7 7,5 10,1 13,3 4 2 7 4 W 1027,7 17 33 0,0
08.12.2018 10:00:00 5,4 5,1 4,0 10,2 13,3 0 0 4 2 N 1027,9 17 0 0,0
08.12.2018 09:00:00 3,7 3,4 2,5 10,3 13,3 2 1 4 2 N 1027,7 14 0 0,0
08.12.2018 08:00:00 3,1 2,8 0,8 10,5 13,3 0 0 4 2 N 1027,2 14 0 0,0
08.12.2018 07:00:00 3,4 3,0 0,8 10,6 13,3 0 0 6 3 N 1027,1 4,4 0 0,0
08.12.2018 06:00:00 3,9 3,5 1,8 10,7 13,3 0 0 5 3 N 1026,4 10 0 0,0
08.12.2018 05:00:00 4,5 4,1 3,2 10,8 13,3 2 1 6 3 E 1026,5 11 0 0,0
08.12.2018 04:00:00 4,2 3,8 1,8 11,0 13,3 0 0 6 3 N 1026,8 16 0 0,2
08.12.2018 03:00:00 3,4 3,0 1,5 11,2 13,3 0 0 6 4 N 1026,5 16 0 0,0
08.12.2018 02:00:00 4,0 3,4 1,9 11,3 13,3 4 2 8 4 SE 1026,2 13 0 0,0
08.12.2018 01:00:00 4,6 3,9 2,1 11,5 13,3 2 1 4 2 ESE 1026,4 10 0 0,0
08.12.2018 00:00:00 6,0 5,0 2,9 11,6 13,3 0 0 8 4 N 1026,0 15 0 0,0
07.12.2018 23:00:00 6,9 5,7 4,4 11,8 13,3 6 4 10 5 W 1025,6 16 0 0,0
07.12.2018 22:00:00 7,1 6,0 4,3 11,9 13,3 3 1 6 4 NW 1025,3 13 0 0,0
07.12.2018 21:00:00 8,5 6,6 6,6 12,0 13,3 5 3 16 9 WNW 1024,3 16 0 0,0
07.12.2018 20:00:00 9,1 6,9 7,6 12,0 13,3 9 5 24 13 W 1023,5 20 0 0,0
07.12.2018 19:00:00 10,1 6,4 8,5 12,1 13,3 15 8 41 22 WNW 1022,4 20 0 2,2
07.12.2018 18:00:00 11,1 8,7 9,5 12,1 13,3 11 6 36 19 W 1021,1 20 0 0,8
07.12.2018 17:00:00 11,1 9,7 10,4 12,1 13,3 13 7 31 17 W 1020,8 5 0 0,4
07.12.2018 16:00:00 11,3 9,4 10,4 12,1 13,3 9 5 34 18 WSW 1020,1 9 0 0,2
07.12.2018 15:00:00 12,6 8,5 11,8 12,0 13,3 13 7 40 22 SW 1019,7 14 0 0,0
07.12.2018 14:00:00 12,8 8,9 13,2 11,9 13,3 11 6 31 17 SSW 1020,9 20 0 0,0
07.12.2018 13:00:00 12,7 8,8 11,7 11,9 13,3 14 8 29 16 S 1021,5 20 1 0,0
07.12.2018 12:00:00 12,1 9,1 11,3 11,9 13,3 4 2 18 10 SW 1023,0 20 0 0,0
07.12.2018 11:00:00 11,5 9,2 10,6 11,9 13,2 6 3 14 8 W 1024,7 17 0 0,0
07.12.2018 10:00:00 11,2 9,1 10,3 11,9 13,2 3 2 15 8 W 1024,5 20 0 0,0
07.12.2018 09:00:00 11,1 9,4 10,1 12,0 13,3 5 3 19 11 SW 1024,7 20 0 0,0
07.12.2018 08:00:00 10,6 9,5 9,2 12,0 13,2 4 2 8 5 W 1024,5 20 0 0,0
07.12.2018 07:00:00 10,3 9,4 8,4 12,0 13,3 4 2 10 5 SSW 1024,8 20 0 0,0
07.12.2018 06:00:00 10,9 10,1 10,6 12,1 13,3 5 3 9 5 WSW 1025,2 10 0 0,4
07.12.2018 05:00:00 11,2 10,3 10,2 12,1 13,2 4 2 11 6 WSW 1025,5 4,9 0 0,4
07.12.2018 04:00:00 10,8 10,2 10,1 12,1 13,2 0 0 4 2 N 1025,9 20 0 0,0
07.12.2018 03:00:00 10,9 10,3 10,3 12,1 13,2 2 1 3 2 NW 1026,4 18 0 0,0
07.12.2018 02:00:00 10,9 10,3 10,4 12,2 13,2 0 0 2 1 N 1026,8 19 0 0,0
07.12.2018 01:00:00 11,0 10,2 10,4 12,2 13,2 0 0 4 2 N 1027,5 19 0 0,0
07.12.2018 00:00:00 11,3 10,2 10,4 12,2 13,3 0 0 6 3 N 1027,9 20 0 0,0
06.12.2018 23:00:00 11,5 10,1 10,8 12,3 13,3 4 2 8 4 W 1028,1 20 0 0,0
06.12.2018 22:00:00 11,8 10,5 11,1 12,2 13,2 5 3 23 12 WNW 1028,4 19 0 0,0
06.12.2018 21:00:00 12,2 11,1 11,6 12,3 13,2 5 3 8 4 WSW 1028,5 18 0 0,0
06.12.2018 20:00:00 12,3 11,4 11,7 12,3 13,2 3 1 15 8 W 1028,6 20 0 0,2
06.12.2018 19:00:00 12,5 11,4 11,9 12,2 13,3 7 4 16 9 W 1028,2 19 0 0,0
06.12.2018 18:00:00 12,7 11,6 11,9 12,2 13,3 7 4 15 8 W 1027,6 20 0 0,0
06.12.2018 17:00:00 13,0 11,7 12,4 12,1 13,2 9 5 14 8 W 1027,0 14 0 0,2
06.12.2018 16:00:00 13,6 11,6 12,9 12,0 13,3 4 2 18 10 NW 1026,7 20 12 0,2
06.12.2018 15:00:00 13,9 11,8 13,2 11,8 13,3 5 3 23 12 NW 1026,4 17 0 0,0
06.12.2018 14:00:00 14,1 12,3 13,7 11,7 13,3 7 4 22 12 WNW 1026,7 13 4 0,0
06.12.2018 13:00:00 13,7 12,1 13,4 11,6 13,3 9 5 23 12 W 1026,8 19 1 0,0
06.12.2018 12:00:00 13,3 12,2 12,8 11,5 13,2 9 5 19 10 W 1027,1 10 0 0,2
06.12.2018 11:00:00 12,9 11,8 12,6 11,5 13,3 7 4 19 10 W 1026,9 17 0 0,0
06.12.2018 10:00:00 12,8 11,7 12,1 11,4 13,2 9 5 20 11 W 1026,2 7 0 0,0
06.12.2018 09:00:00 12,6 11,7 11,6 11,4 13,3 9 5 18 10 W 1026,3 5 0 0,0
06.12.2018 08:00:00 12,1 11,3 11,5 11,3 13,3 6 3 21 11 W 1025,2 14 0 0,0
06.12.2018 07:00:00 12,2 11,1 11,3 11,3 13,2 10 6 22 12 W 1024,8 20 0 0,2
06.12.2018 06:00:00 12,0 11,1 11,4 11,3 13,3 11 6 20 11 W 1024,5 12 0 0,0
06.12.2018 05:00:00 12,0 11,1 11,4 11,3 13,3 9 5 23 12 W 1024,3 8 0 0,2
06.12.2018 04:00:00 12,4 10,6 11,4 11,2 13,2 9 5 21 11 W 1023,6 18 0 0,0
06.12.2018 03:00:00 12,5 10,7 11,0 11,2 13,2 10 5 21 11 W 1024,0 20 0 0,0
06.12.2018 02:00:00 12,4 11,0 11,4 11,3 13,3 6 4 19 10 WSW 1024,4 15 0 0,0
06.12.2018 01:00:00 12,7 11,1 10,5 11,3 13,3 10 5 19 11 WSW 1024,6 20 0 0,0
06.12.2018 00:00:00 11,4 10,9 10,3 11,3 13,3 3 1 8 4 W 1025,4 20 0 0,0

tt = temperature
td = dewpoint
tt 5cm = temperature 5cm
tt -20cm = temperature -20cm
tt -100cm = temperature -100cm
ff = wind speed
fx = gusts
dd = wind direction
ppp = reduced air pressure
vv = visibility
sd = sunshine duration
rr = precipitation

Next stations